Hourly Data Report for July 20, 2021

WINDSOR A
ONTARIO
Current Station Operator: NAVCAN

42°16'34.000" N
82°57'19.000" W
189.60 m
6139530
71538
YQG

Download Data

Hourly Data (July 2021)
Hourly Data Report for July 20, 2021
TIME
LST
Temp Definition
°C
Dew Point Definition
°C
Rel Hum Definition
%
Precip. Amount Definition
mm

Wind Dir Definition
10's deg

Wind Spd Definition
km/h
Visibility Definition
km
Stn Press Definition
kPa
Hmdx Definition


Wind Chill Definition


Weather Definition


00:00 22.0 19.7 87 0.0 26 4 14.5 99.54 29   LegendNANA
01:00 20.4 19.3 93 0.0 22 5 12.9 99.49 27   LegendNANA
02:00 20.9 19.4 91 0.0 25 9 11.3 99.44 28   LegendNANA
03:00 21.6 19.6 88 0.0 28 11 11.3 99.43 29   LegendNANA
04:00 20.0 19.0 94 0.0 28 8 9.7 99.43 27   Fog
05:00 20.0 19.0 94 0.0 26 9 12.9 99.45 27   LegendNANA
06:00 20.6 19.3 92 0.0 30 4 12.9 99.46 28   LegendNANA
07:00 21.9 20.0 89 0.0 27 9 16.1 99.46 29   LegendNANA
08:00 23.4 18.9 76 0.0 31 9 16.1 99.47 30   LegendNANA
09:00 24.6 19.3 72 0.0 29 11 16.1 99.43 32   LegendNANA
10:00 25.9 19.2 66 0.0 26 13 16.1 99.42 33   LegendNANA
11:00 26.9 18.9 61 0.0 27 15 16.1 99.39 34   LegendNANA
12:00 27.6 18.4 57 0.0 27 17 16.1 99.35 34   LegendNANA
13:00 28.0 17.8 53 0.0 25 18 16.1 99.27 34   LegendNANA
14:00 28.4 17.6 51 0.0 26 21 16.1 99.20 34   LegendNANA
15:00 29.0 17.5 49 0.0 29 21 16.1 99.16 35   LegendNANA
16:00 29.5 18.5 51 0.0 28 17 16.1 99.10 36   LegendNANA
17:00 29.2 19.9 57 0.0 28 11 16.1 99.08 37   LegendNANA
18:00 28.5 19.3 57 0.0 28 15 16.1 99.08 36   LegendNANA
19:00 22.5 20.1 86 0.2 3 18 16.1 99.18 30   Thunderstorms, Rain
20:00 21.6 18.9 84 0.8 35 15 16.1 99.22 28   Rain
21:00 21.5 19.5 88 0.0 2 15 16.1 99.29 29   LegendNANA
22:00 20.6 17.8 84 0.0 36 18 16.1 99.38 26   LegendNANA
23:00 19.1 16.6 85 0.0 36 17 16.1 99.39     LegendNANA

Notes on Data Quality.

Legend

  • E = Estimated
  • M = Missing
  • NA = Not Available*
  • [empty] = Indicates an unobserved value
Date modified: